IQ1GE Weather Reports


Display with metric or nautical units.
time (UTC)temp
F
wind
direction
speed
MPH
gust
MPH
rain 1hr
in
rain 24hr
in
rain mn
in
humidity
%
barometer
mb
20260508211436 67 359 0.0 0.0 0.00 0.00 0.00 68 1017.4
20260508210936 67 359 0.0 0.0 0.00 0.00 0.00 68 1017.3
20260508210436 67 359 0.0 0.0 0.00 0.00 0.00 68 1017.3
20260508205930 67 359 0.0 0.0 0.00 0.00 0.00 67 1017.3
20260508205430 68 359 0.0 0.0 0.00 0.00 0.00 67 1017.2
20260508204933 68 359 0.0 0.0 0.00 0.00 0.00 67 1017.1
20260508204430 68 359 0.0 0.0 0.00 0.00 0.00 67 1017.1
20260508203930 68 359 0.0 0.0 0.00 0.00 0.00 66 1017.1
20260508203430 68 359 0.0 0.0 0.00 0.00 0.00 66 1017.2
20260508202936 69 359 0.0 0.0 0.00 0.00 0.00 65 1017.1
20260508202430 69 359 0.0 0.0 0.00 0.00 0.00 64 1017.2
20260508201930 69 25 0.0 0.0 0.00 0.00 0.00 64 1017.2
20260508201430 69 359 0.0 0.0 0.00 0.00 0.00 64 1017.2
20260508200930 69 14 0.0 0.0 0.00 0.00 0.00 64 1017.0
20260508200430 69 359 0.0 0.0 0.00 0.00 0.00 64 1016.9
20260508195933 69 359 0.0 0.0 0.00 0.00 0.00 64 1016.9
20260508195436 69 37 0.0 0.0 0.00 0.00 0.00 64 1016.9
20260508194936 69 359 0.0 0.0 0.00 0.00 0.00 65 1016.9
20260508194433 69 29 0.0 0.0 0.00 0.00 0.00 65 1016.9
20260508193933 69 22 0.0 0.0 0.00 0.00 0.00 65 1016.8
20260508193433 69 359 0.0 0.0 0.00 0.00 0.00 66 1016.7
20260508192930 69 16 0.0 0.0 0.00 0.00 0.00 65 1016.8
20260508192436 70 326 0.0 0.0 0.00 0.00 0.00 65 1016.7
20260508191930 70 20 0.0 0.0 0.00 0.00 0.00 65 1016.6
20260508191436 70 57 0.0 0.0 0.00 0.00 0.00 65 1016.6
20260508190930 70 359 0.0 0.0 0.00 0.00 0.00 65 1016.5
20260508190430 70 11 0.0 0.0 0.00 0.00 0.00 65 1016.4
20260508185936 70 27 0.0 0.0 0.00 0.00 0.00 65 1016.4
20260508185436 70 71 0.0 0.0 0.00 0.00 0.00 65 1016.3
20260508184930 70 25 0.0 0.0 0.00 0.00 0.00 65 1016.2
20260508184436 70 32 0.0 0.0 0.00 0.00 0.00 65 1016.1
20260508183933 70 359 0.0 0.0 0.00 0.00 0.00 65 1016.0
20260508183436 70 359 0.0 0.0 0.00 0.00 0.00 65 1016.0
20260508182933 70 359 0.0 0.0 0.00 0.00 0.00 65 1016.0
20260508182430 70 10 0.0 0.0 0.00 0.00 0.00 65 1015.9
20260508181933 70 14 0.0 0.0 0.00 0.00 0.00 64 1015.8
20260508181430 70 359 0.0 0.0 0.00 0.00 0.00 64 1015.8
20260508180930 71 53 0.0 0.0 0.00 0.00 0.00 64 1015.8
20260508180436 71 359 0.0 0.0 0.00 0.00 0.00 64 1015.8
20260508175933 71 359 0.0 0.0 0.00 0.00 0.00 63 1015.8
20260508175430 71 359 0.0 0.0 0.00 0.00 0.00 63 1015.7
20260508174933 71 359 0.0 0.0 0.00 0.00 0.00 62 1015.6
20260508174433 72 359 0.0 0.0 0.00 0.00 0.00 63 1015.6
20260508173930 72 359 0.0 0.0 0.00 0.00 0.00 62 1015.5
20260508173430 72 16 0.0 0.0 0.00 0.00 0.00 61 1015.4
20260508172936 72 302 0.0 0.0 0.00 0.00 0.00 61 1015.4
20260508172430 72 93 0.0 0.0 0.00 0.00 0.00 60 1015.3
20260508171930 73 359 0.0 0.0 0.00 0.00 0.00 60 1015.4
20260508171433 73 34 0.0 0.0 0.00 0.00 0.00 60 1015.3
20260508170930 73 313 0.0 0.0 0.00 0.00 0.00 59 1015.4
20260508170430 73 45 0.0 0.0 0.00 0.00 0.00 59 1015.2
20260508165930 73 359 0.0 0.0 0.00 0.00 0.00 58 1015.3
20260508165433 73 359 0.0 0.0 0.00 0.00 0.00 57 1015.3
20260508164930 73 338 0.0 0.0 0.00 0.00 0.00 57 1015.2
20260508164430 73 14 0.0 0.0 0.00 0.00 0.00 56 1015.2
20260508163936 73 359 0.0 0.0 0.00 0.00 0.00 56 1015.2
20260508163433 73 282 0.0 0.0 0.00 0.00 0.00 56 1015.1
20260508162930 73 25 0.0 0.0 0.00 0.00 0.00 56 1015.2
20260508162433 73 314 0.0 0.0 0.00 0.00 0.00 55 1015.2
20260508161936 74 338 0.0 0.0 0.00 0.00 0.00 56 1015.2
20260508161430 73 349 0.0 0.0 0.00 0.00 0.00 57 1015.2
20260508160930 73 54 0.0 0.0 0.00 0.00 0.00 57 1015.2
20260508160439 73 291 0.0 0.0 0.00 0.00 0.00 57 1015.2
20260508155936 73 349 0.0 0.0 0.00 0.00 0.00 58 1015.1
20260508155436 73 43 0.0 0.0 0.00 0.00 0.00 59 1015.2
20260508154939 73 33 0.0 0.0 0.00 0.00 0.00 59 1015.2
20260508154436 73 11 0.0 0.0 0.00 0.00 0.00 58 1015.3
20260508153930 73 14 0.0 0.0 0.00 0.00 0.00 58 1015.2
20260508153430 73 337 0.0 0.0 0.00 0.00 0.00 59 1015.3
20260508152930 72 359 0.0 0.0 0.00 0.00 0.00 60 1015.3
20260508152430 73 13 0.0 0.0 0.00 0.00 0.00 60 1015.3
20260508151930 73 307 0.0 0.0 0.00 0.00 0.00 61 1015.3
20260508151430 73 13 0.0 0.0 0.00 0.00 0.00 61 1015.3
20260508150930 73 27 0.0 0.0 0.00 0.00 0.00 60 1015.3
20260508150430 73 315 0.0 0.0 0.00 0.00 0.00 60 1015.4
20260508145933 73 332 0.0 0.0 0.00 0.00 0.00 60 1015.4
20260508145430 73 349 0.0 0.0 0.00 0.00 0.00 59 1015.4
20260508144934 73 108 0.0 0.0 0.00 0.00 0.00 61 1015.6
20260508144433 73 350 0.0 0.0 0.00 0.00 0.00 60 1015.7
20260508143933 73 21 0.0 0.0 0.00 0.00 0.00 59 1015.7
20260508143431 73 359 0.0 0.0 0.00 0.00 0.00 60 1015.6
20260508142930 73 297 0.0 0.0 0.00 0.00 0.00 61 1015.6
20260508142431 73 11 0.0 0.0 0.00 0.00 0.00 61 1015.6
20260508141934 72 348 0.0 0.0 0.00 0.00 0.00 61 1015.7
20260508141434 72 303 0.0 0.0 0.00 0.00 0.00 61 1015.7
20260508140937 72 34 0.0 0.0 0.00 0.00 0.00 60 1015.9
20260508140431 72 359 0.0 0.0 0.00 0.00 0.00 60 1015.9
20260508135937 72 10 0.0 0.0 0.00 0.00 0.00 61 1015.8
20260508135437 72 314 0.0 0.0 0.00 0.00 0.00 61 1015.8
20260508134931 71 318 0.0 0.0 0.00 0.00 0.00 62 1015.8
20260508134431 71 52 0.0 0.0 0.00 0.00 0.00 63 1015.8
20260508133934 71 31 0.0 0.0 0.00 0.00 0.00 64 1015.9
20260508133437 70 20 0.0 0.0 0.00 0.00 0.00 65 1016.0
20260508132934 70 359 0.0 0.0 0.00 0.00 0.00 66 1016.1
20260508132431 69 64 0.0 0.0 0.00 0.00 0.00 67 1016.2
20260508131934 68 55 0.0 0.0 0.00 0.00 0.00 68 1016.2
20260508131431 68 52 0.0 0.0 0.00 0.00 0.00 68 1016.2
20260508130931 68 338 0.0 0.0 0.00 0.00 0.00 68 1016.2
20260508130434 68 37 0.0 0.0 0.00 0.00 0.00 68 1016.2
20260508125934 68 359 0.0 0.0 0.00 0.00 0.00 69 1016.2
20260508125431 67 354 0.0 0.0 0.00 0.00 0.00 68 1016.3
20260508124934 67 16 0.0 0.0 0.00 0.00 0.00 68 1016.3
20260508124431 68 31 0.0 0.0 0.00 0.00 0.00 67 1016.2
20260508123931 68 20 0.0 0.0 0.00 0.00 0.00 67 1016.3
20260508123431 69 359 0.0 0.0 0.00 0.00 0.00 66 1016.3
20260508122937 69 359 0.0 0.0 0.00 0.00 0.00 65 1016.4
20260508122431 69 359 0.0 0.0 0.00 0.00 0.00 65 1016.3
20260508121931 69 20 0.0 0.0 0.00 0.00 0.00 64 1016.2
20260508121437 69 350 0.0 0.0 0.00 0.00 0.00 65 1016.2
20260508120931 69 345 0.0 0.0 0.00 0.00 0.00 65 1016.2
20260508120437 69 359 0.0 0.0 0.00 0.00 0.00 65 1016.2
20260508115937 69 16 0.0 0.0 0.00 0.00 0.00 65 1016.2
20260508115434 69 359 0.0 0.0 0.00 0.00 0.00 65 1016.1
20260508114931 69 31 0.0 0.0 0.00 0.00 0.00 65 1016.1
20260508114434 69 359 0.0 0.0 0.00 0.00 0.00 64 1016.1
20260508113931 70 359 0.0 0.0 0.00 0.00 0.00 63 1016.1
20260508113434 70 297 0.0 0.0 0.00 0.00 0.00 63 1016.1
20260508112934 69 21 0.0 0.0 0.00 0.00 0.00 64 1016.0
20260508112437 70 13 0.0 0.0 0.00 0.00 0.00 62 1016.0
20260508111931 70 312 0.0 0.0 0.00 0.00 0.00 63 1016.0
20260508111431 70 359 0.0 0.0 0.00 0.00 0.00 62 1016.0
20260508110940 70 359 0.0 0.0 0.00 0.00 0.00 63 1016.0
20260508110434 70 359 0.0 0.0 0.00 0.00 0.00 64 1016.0
20260508105931 70 359 0.0 0.0 0.00 0.00 0.00 63 1016.0
20260508105431 70 19 0.0 0.0 0.00 0.00 0.00 62 1016.0
20260508104937 70 306 0.0 0.0 0.00 0.00 0.00 61 1016.1
20260508104431 70 337 0.0 0.0 0.00 0.00 0.00 61 1016.0
20260508103934 70 349 0.0 0.0 0.00 0.00 0.00 61 1016.0
20260508103434 70 318 0.0 0.0 0.00 0.00 0.00 60 1016.0
20260508102931 70 332 0.0 0.0 0.00 0.00 0.00 60 1016.0
20260508102431 70 308 0.0 0.0 0.00 0.00 0.00 60 1016.0
20260508101931 70 359 0.0 0.0 0.00 0.00 0.00 59 1015.9
20260508101434 70 347 0.0 0.0 0.00 0.00 0.00 59 1015.9
20260508100937 70 16 0.0 0.0 0.00 0.00 0.00 60 1016.0
20260508100431 70 336 0.0 0.0 0.00 0.00 0.00 61 1015.9
20260508095937 70 303 0.0 0.0 0.00 0.00 0.00 60 1015.8
20260508095431 70 299 0.0 0.0 0.00 0.00 0.00 60 1015.8
20260508094934 70 306 0.0 0.0 0.00 0.00 0.00 60 1015.8
20260508094431 70 31 0.0 0.0 0.00 0.00 0.00 61 1015.8
20260508093940 70 359 0.0 0.0 0.00 0.00 0.00 60 1015.7
20260508093434 70 359 0.0 0.0 0.00 0.00 0.00 60 1015.7
20260508092934 70 359 0.0 0.0 0.00 0.00 0.00 61 1015.7
20260508092434 69 304 0.0 0.0 0.00 0.00 0.00 62 1015.6
20260508091931 69 23 0.0 0.0 0.00 0.00 0.00 62 1015.6
20260508091431 69 346 0.0 0.0 0.00 0.00 0.00 62 1015.6
20260508090931 69 359 0.0 0.0 0.00 0.00 0.00 61 1015.6
20260508090431 69 315 0.0 0.0 0.00 0.00 0.00 61 1015.5
20260508085934 69 15 0.0 0.0 0.00 0.00 0.00 61 1015.5
20260508085437 69 359 0.0 0.0 0.00 0.00 0.00 61 1015.5
20260508084931 69 349 0.0 0.0 0.00 0.00 0.00 60 1015.5
20260508084431 69 41 0.0 0.0 0.00 0.00 0.00 60 1015.5
20260508083937 69 359 0.0 0.0 0.00 0.00 0.00 59 1015.4
20260508083434 69 359 0.0 0.0 0.00 0.00 0.00 60 1015.4
20260508082931 69 359 0.0 0.0 0.00 0.00 0.00 60 1015.4
20260508082431 69 359 0.0 0.0 0.00 0.00 0.00 60 1015.4
20260508081937 68 359 0.0 0.0 0.00 0.00 0.00 60 1015.3
20260508081431 69 16 0.0 0.0 0.00 0.00 0.00 61 1015.4
20260508080931 69 305 0.0 0.0 0.00 0.00 0.00 61 1015.3
20260508080434 69 47 0.0 0.0 0.00 0.00 0.00 61 1015.3
20260508075934 68 27 0.0 0.0 0.00 0.00 0.00 61 1015.2
20260508075431 68 44 0.0 0.0 0.00 0.00 0.00 62 1015.2
20260508074931 68 359 0.0 0.0 0.00 0.00 0.00 62 1015.2
20260508074431 68 359 0.0 0.0 0.00 0.00 0.00 62 1015.1
20260508073931 68 8 0.0 0.0 0.00 0.00 0.00 62 1015.1
20260508073431 67 359 0.0 0.0 0.00 0.00 0.00 63 1015.1
20260508072934 67 359 0.0 0.0 0.00 0.00 0.00 62 1015.0
20260508072431 67 359 0.0 0.0 0.00 0.00 0.00 63 1015.0
20260508071934 66 359 0.0 0.0 0.00 0.00 0.00 64 1015.0
20260508071431 66 359 0.0 0.0 0.00 0.00 0.00 64 1015.0
20260508070931 66 359 0.0 0.0 0.00 0.00 0.00 65 1015.0
20260508070431 66 359 0.0 0.0 0.00 0.00 0.00 65 1015.1
20260508065934 66 359 0.0 0.0 0.00 0.00 0.00 65 1015.0
20260508065431 66 359 0.0 0.0 0.00 0.00 0.00 65 1015.0
20260508064934 65 359 0.0 0.0 0.00 0.00 0.00 65 1015.0
20260508064437 65 359 0.0 0.0 0.00 0.00 0.00 65 1015.0
20260508063931 65 359 0.0 0.0 0.00 0.00 0.00 64 1014.9
20260508063434 65 359 0.0 0.0 0.00 0.00 0.00 64 1014.9
20260508062934 65 359 0.0 0.0 0.00 0.00 0.00 65 1014.9
20260508062434 65 359 0.0 0.0 0.00 0.00 0.00 66 1014.9
20260508061931 65 359 0.0 0.0 0.00 0.00 0.00 66 1014.9
20260508061437 65 359 0.0 0.0 0.00 0.00 0.00 66 1014.8
20260508060931 64 359 0.0 0.0 0.00 0.00 0.00 66 1014.8
20260508060431 64 359 0.0 0.0 0.00 0.00 0.00 66 1014.7
20260508055931 64 359 0.0 0.0 0.00 0.00 0.00 66 1014.7
20260508055431 64 359 0.0 0.0 0.00 0.00 0.00 67 1014.7
20260508054934 64 359 0.0 0.0 0.00 0.00 0.00 67 1014.8
20260508054431 64 359 0.0 0.0 0.00 0.00 0.00 66 1014.7
20260508053931 64 359 0.0 0.0 0.00 0.00 0.00 66 1014.7
20260508053434 63 359 0.0 0.0 0.00 0.00 0.00 67 1014.6
20260508052931 63 359 0.0 0.0 0.00 0.00 0.00 67 1014.7
20260508052434 63 359 0.0 0.0 0.00 0.00 0.00 67 1014.6
20260508051940 63 359 0.0 0.0 0.00 0.00 0.00 67 1014.6
20260508051431 63 359 0.0 0.0 0.00 0.00 0.00 67 1014.5
20260508050934 63 359 0.0 0.0 0.00 0.00 0.00 67 1014.4
20260508050437 62 359 0.0 0.0 0.00 0.00 0.00 67 1014.4
20260508045931 62 359 0.0 0.0 0.00 0.00 0.00 68 1014.4
20260508045431 61 359 0.0 0.0 0.00 0.00 0.00 69 1014.4
20260508044934 61 359 0.0 0.0 0.00 0.00 0.00 68 1014.4
20260508044431 61 359 0.0 0.0 0.00 0.00 0.00 68 1014.3
20260508043931 61 359 0.0 0.0 0.00 0.00 0.00 68 1014.3
20260508043437 61 359 0.0 0.0 0.00 0.00 0.00 68 1014.2
20260508042931 61 359 0.0 0.0 0.00 0.00 0.00 67 1014.2
20260508042437 62 359 0.0 0.0 0.00 0.00 0.00 66 1014.0
20260508041934 62 359 0.0 0.0 0.00 0.00 0.00 65 1014.0
20260508041431 63 359 0.0 0.0 0.00 0.00 0.00 64 1013.9
20260508040931 62 359 0.0 0.0 0.00 0.00 0.00 65 1013.8
20260508040431 62 359 0.0 0.0 0.00 0.00 0.00 65 1013.8
20260508035934 63 359 0.0 0.0 0.00 0.00 0.00 63 1013.8
20260508035434 63 359 0.0 0.0 0.00 0.00 0.00 63 1013.8
20260508034932 64 359 0.0 0.0 0.00 0.00 0.00 61 1013.8
20260508034432 64 359 0.0 0.0 0.00 0.00 0.00 60 1013.8
20260508033937 65 359 0.0 0.0 0.00 0.00 0.00 59 1013.8
20260508033434 65 359 0.0 0.0 0.00 0.00 0.00 58 1013.8
20260508032931 66 359 0.0 0.0 0.00 0.00 0.00 57 1013.8
20260508032431 66 359 0.0 0.0 0.00 0.00 0.00 57 1013.8
20260508031938 65 359 0.0 0.0 0.00 0.00 0.00 58 1013.8
20260508031438 65 359 0.0 0.0 0.00 0.00 0.00 58 1013.8
20260508030941 65 359 0.0 0.0 0.00 0.00 0.00 58 1013.8
20260508030432 65 359 0.0 0.0 0.00 0.00 0.00 58 1013.8
20260508025938 64 359 0.0 0.0 0.00 0.00 0.00 59 1013.9
20260508025435 63 359 0.0 0.0 0.00 0.00 0.00 60 1013.9
20260508024932 62 359 0.0 0.0 0.00 0.00 0.00 60 1014.0
20260508024432 62 359 0.0 0.0 0.00 0.00 0.00 61 1014.0
20260508023935 61 359 0.0 0.0 0.00 0.00 0.00 61 1014.0
20260508023432 61 359 0.0 0.0 0.00 0.00 0.00 62 1014.1
20260508022935 61 359 0.0 0.0 0.00 0.00 0.00 62 1014.1
20260508022435 62 359 0.0 0.0 0.00 0.00 0.00 60 1014.2
20260508021932 62 359 0.0 0.0 0.00 0.00 0.00 60 1014.2
20260508021432 62 359 0.0 0.0 0.00 0.00 0.00 61 1014.2
20260508020938 62 359 0.0 0.0 0.00 0.00 0.00 61 1014.3
20260508020436 62 359 0.0 0.0 0.00 0.00 0.00 60 1014.3
20260508015930 62 359 0.0 0.0 0.00 0.00 0.00 61 1014.3
20260508015436 61 359 0.0 0.0 0.00 0.00 0.00 62 1014.3
20260508014930 61 359 0.0 0.0 0.00 0.00 0.00 63 1014.4
20260508014430 61 359 0.0 0.0 0.00 0.00 0.00 64 1014.5
20260508013930 61 359 0.0 0.0 0.00 0.00 0.00 65 1014.5
20260508013430 60 359 0.0 0.0 0.00 0.00 0.00 66 1014.5
20260508012930 60 359 0.0 0.0 0.00 0.00 0.00 67 1014.6
20260508012433 60 359 0.0 0.0 0.00 0.00 0.00 68 1014.7
20260508011930 60 359 0.0 0.0 0.00 0.00 0.00 68 1014.7
20260508011430 60 359 0.0 0.0 0.00 0.00 0.00 68 1014.7
20260508010933 60 359 0.0 0.0 0.00 0.00 0.00 69 1014.8
20260508010430 60 359 0.0 0.0 0.00 0.00 0.00 69 1014.8
20260508005930 60 359 0.0 0.0 0.00 0.00 0.00 70 1014.9
20260508005430 60 359 0.0 0.0 0.00 0.00 0.00 70 1014.9
20260508004930 60 359 0.0 0.0 0.00 0.00 0.00 70 1014.9
20260508004430 60 359 0.0 0.0 0.00 0.00 0.00 70 1014.9
20260508003930 60 359 0.0 0.0 0.00 0.00 0.00 72 1015.0
20260508003430 60 359 0.0 0.0 0.00 0.00 0.00 73 1015.1
20260508002933 60 359 0.0 0.0 0.00 0.00 0.00 73 1015.2
20260508002436 60 359 0.0 0.0 0.00 0.00 0.00 74 1015.2
20260508001933 60 359 0.0 0.0 0.00 0.00 0.00 75 1015.3
20260508001433 60 359 0.0 0.0 0.00 0.00 0.00 77 1015.4
20260508000930 60 359 0.0 0.0 0.00 0.00 0.00 78 1015.4
20260508000436 59 359 0.0 0.0 0.00 0.00 0.00 78 1015.5
20260507235939 59 359 0.0 0.0 0.00 0.00 0.00 78 1015.5
20260507235430 59 359 0.0 0.0 0.00 0.00 0.00 77 1015.6
20260507234933 59 359 0.0 0.0 0.00 0.00 0.00 78 1015.7
20260507234430 59 359 0.0 0.0 0.00 0.00 0.00 78 1015.7
20260507233933 60 359 0.0 0.0 0.00 0.00 0.00 78 1015.8
20260507233430 60 359 0.0 0.0 0.00 0.00 0.00 79 1015.8
20260507232930 59 359 0.0 0.0 0.00 0.00 0.00 79 1015.9
20260507232430 60 359 0.0 0.0 0.00 0.00 0.00 79 1015.9
20260507231939 60 359 0.0 0.0 0.00 0.00 0.00 80 1016.0
20260507231430 60 359 0.0 0.0 0.00 0.00 0.00 79 1016.0
20260507230933 60 359 0.0 0.0 0.00 0.00 0.00 79 1016.0
20260507230433 60 359 0.0 0.0 0.00 0.00 0.00 79 1016.1
20260507225930 59 359 0.0 0.0 0.00 0.00 0.00 80 1016.2
20260507225433 59 359 0.0 0.0 0.00 0.00 0.00 81 1016.3
20260507224936 59 359 0.0 0.0 0.00 0.00 0.00 82 1016.3
20260507224430 60 359 0.0 0.0 0.00 0.00 0.00 82 1016.3
20260507223930 60 359 0.0 0.0 0.00 0.00 0.00 82 1016.3
20260507223430 60 359 0.0 0.0 0.00 0.00 0.00 82 1016.2
20260507222933 60 359 0.0 0.0 0.00 0.00 0.00 82 1016.2
20260507222433 60 359 0.0 0.0 0.00 0.00 0.00 82 1016.2
20260507221930 60 359 0.0 0.0 0.00 0.00 0.00 82 1016.2
20260507221430 60 359 0.0 0.0 0.00 0.00 0.00 83 1016.2
20260507220936 60 359 0.0 0.0 0.00 0.00 0.00 83 1016.1
20260507220433 60 359 0.0 0.0 0.00 0.00 0.00 84 1016.2
20260507215930 60 359 0.0 0.0 0.00 0.00 0.00 85 1016.1
20260507215430 60 359 0.0 0.0 0.00 0.00 0.00 85 1016.0
20260507214933 60 359 0.0 0.0 0.00 0.00 0.00 85 1016.0
20260507214436 60 359 0.0 0.0 0.00 0.00 0.00 84 1016.0
20260507213930 60 359 0.0 0.0 0.00 0.00 0.00 84 1015.9
20260507213433 60 359 0.0 0.0 0.00 0.00 0.00 84 1015.8
20260507212930 61 359 0.0 0.0 0.00 0.00 0.00 84 1015.9
20260507212436 61 359 0.0 0.0 0.00 0.00 0.00 84 1015.9
20260507211930 61 359 0.0 0.0 0.00 0.00 0.00 85 1015.9